Regional Weather Roundup
Issued by NWS

Home | Current Version | Previous Version | Graphics & Text | Print | Product List | Glossary On
Versions: 1 2 3 4 5 6 7 8 9 10 11 12 13 14 15 16 17 18 19 20 21 22 23 24 25 26 27 28 29 30 31 32 33 34 35 36 37 38 39 40 41 42 43 44 45 46 47 48 49 50
142
ASUS43 KIND 280359
RWRIN

WEATHER ROUNDUP FOR INDIANA
NATIONAL WEATHER SERVICE INDIANAPOLIS IN
1200 AM EDT TUE MAR 28 2017

NOTE: "FAIR" INDICATES FEW OR NO CLOUDS BELOW 12,000 FEET WITH NO
SIGNIFICANT WEATHER AND/OR OBSTRUCTIONS TO VISIBILITY.

* - STATION DOES NOT REPORT WEATHER SUCH AS PRECIPITATION OR FOG.

+ - STATION NOT QUALITY CONTROLLED BY THE NATIONAL WEATHER SERVICE.
    USE DATA WITH CAUTION...ESPECIALLY DEWPOINT AND RELATIVE
    HUMIDITY OBSERVATIONS.

INZ001>003-010>013-019-020-280500-
NORTHWEST INDIANA

CITY           SKY/WX    TMP DP  RH WIND       PRES   REMARKS
KNOX *+        CLOUDY    45  32  61 N7        29.93S
MONTICELLO +   CLOUDY    51  49  94 N9        29.90R FOG

$$

LMZ046-743>745-280500-
SOUTHERN LAKE MICHIGAN

STATION/POSITION TIME  TEMP    WIND        PRES    WAVE
                       AIR SEA DIR/SP/G            HT
                 (UTC) (F)     (DEG/KT/KT) (MB)    (FT)
BURNS HARBOR     0340   39      30/  9/ 10 1015.2S
MICHIGAN CITY    0330   38      20/ 11/ 12   N/A

$$

INZ004-005-014>016-021>024-280500-
NORTH CENTRAL INDIANA

CITY           SKY/WX    TMP DP  RH WIND       PRES   REMARKS
GOSHEN         CLOUDY    50  45  83 N10       29.91S
SOUTH BEND     CLOUDY    44  41  89 N7        29.94S

$$

INZ006>009-017-018-025>027-280500-
NORTHEAST INDIANA

CITY           SKY/WX    TMP DP  RH WIND       PRES   REMARKS
ANGOLA *+      CLOUDY    50  37  62 N5        29.90S
FORT WAYNE     DRIZZLE   55  50  83 N6        29.88F
KENDALLVILLE + CLOUDY    51  49  94 N7        29.90F

$$

INZ028-029-035-036-043>045-051>053-280500-
WEST CENTRAL INDIANA

CITY           SKY/WX    TMP DP  RH WIND       PRES   REMARKS
CRAWFORDSVL +  HVY RAIN  53  53 100 N9        29.87R
LAFAYETTE      CLOUDY    53  52  96 N10       29.89R FOG
TERRE HAUTE    LGT RAIN  56  53  90 N7        29.85S

$$

INZ030>032-037>040-046>048-054>057-064-065-280500-
CENTRAL INDIANA

CITY           SKY/WX    TMP DP  RH WIND       PRES   REMARKS
INDIANAPOLIS   LGT RAIN  56  54  93 NE7       29.84R
-EAGLE CREEK   CLOUDY    57  54  89 N5        29.84R
KOKOMO +       LGT RAIN  54  53  97 N13       29.88S
SHELBYVILLE    LGT RAIN  57  53  86 S8        29.83S

$$

INZ033-034-041-042-049-050-058-059-280500-
EAST CENTRAL INDIANA

CITY           SKY/WX    TMP DP  RH WIND       PRES   REMARKS
MUNCIE         RAIN      56  54  93 NE8       29.85S FOG
RICHMOND +     LGT RAIN  54  54 100 S8        29.84S

$$

INZ060-061-067>069-081>083-085>088-280500-
SOUTHWEST INDIANA

CITY           SKY/WX    TMP DP  RH WIND       PRES   REMARKS
EVANSVILLE     CLOUDY    59  55  87 W8        29.86R
HUNTINGBURG *+ CLOUDY    55  54  96 SW3       29.85S

$$

INZ062-063-066-070>080-084-089>092-280500-
SOUTH CENTRAL AND SOUTHEAST INDIANA

CITY           SKY/WX    TMP DP  RH WIND       PRES   REMARKS
BLOOMINGTON    LGT RAIN  56  54  93 CALM      29.84S FOG
MADISON *+     CLOUDY    55  54  94 CALM      29.87S
SEYMOUR +      CLOUDY    55  55 100 SE3       29.84F

$$





USA.gov is the U.S. government's official web portal to all federal, state and local government web resources and services.